| time (UTC) | temp C | wind direction | speed KPH | gust KPH | rain 1hr cm | rain 24hr cm | rain mn cm | humidity % | barometer mb |
| 20260904010004 | 18 | 200 | 0.0 | 4.8 | 0.00 | 0.00 | 0.00 | 40 | 1009.3 |
| 20260904004502 | 18 | 200 | 0.0 | 3.2 | 0.00 | 0.00 | 0.00 | 40 | 1009.2 |
| 20260904003001 | 18 | 200 | 0.0 | 0.0 | 0.00 | 0.00 | 0.00 | 40 | 1009.3 |
| 20260904001518 | 18 | 200 | 0.0 | 0.0 | 0.00 | 0.00 | 0.00 | 41 | 1009.5 |
| 20260904000003 | 19 | 200 | 0.0 | 3.2 | 0.00 | 0.00 | 0.00 | 39 | 1009.6 |
| 20260903234507 | 19 | 127 | 0.0 | 8.0 | 0.00 | 0.00 | 0.00 | 38 | 1009.6 |
| 20260903233009 | 19 | 169 | 0.0 | 8.0 | 0.00 | 0.00 | 0.00 | 39 | 1009.6 |
| 20260903231506 | 19 | 167 | 0.0 | 9.7 | 0.00 | 0.00 | 0.00 | 39 | 1009.7 |
| 20260903230003 | 19 | 115 | 3.2 | 9.7 | 0.00 | 0.00 | 0.00 | 39 | 1009.9 |
| 20260903224503 | 19 | 256 | 0.0 | 6.4 | 0.00 | 0.00 | 0.00 | 40 | 1009.8 |
| 20260903223013 | 19 | 132 | 4.8 | 16.1 | 0.00 | 0.00 | 0.00 | 38 | 1010.1 |
| 20260903221516 | 19 | 169 | 4.8 | 14.5 | 0.00 | 0.00 | 0.00 | 38 | 1010.3 |
| 20260903220012 | 19 | 211 | 4.8 | 11.3 | 0.00 | 0.00 | 0.00 | 39 | 1010.3 |
| 20260903214511 | 19 | 177 | 0.0 | 4.8 | 0.00 | 0.00 | 0.00 | 40 | 1010.5 |
| 20260903213005 | 19 | 194 | 0.0 | 9.7 | 0.00 | 0.00 | 0.00 | 39 | 1010.7 |
| 20260903211513 | 19 | 286 | 0.0 | 8.0 | 0.00 | 0.00 | 0.00 | 41 | 1010.8 |
| 20260903210020 | 18 | 158 | 1.6 | 11.3 | 0.00 | 0.00 | 0.00 | 42 | 1010.9 |
| 20260903204523 | 19 | 188 | 3.2 | 8.0 | 0.00 | 0.00 | 0.00 | 42 | 1011.0 |
| 20260903203017 | 19 | 223 | 6.4 | 12.9 | 0.00 | 0.00 | 0.00 | 40 | 1010.8 |
| 20260903201513 | 19 | 175 | 1.6 | 16.1 | 0.00 | 0.00 | 0.00 | 42 | 1011.0 |
| 20260903200007 | 19 | 194 | 3.2 | 8.0 | 0.00 | 0.00 | 0.00 | 42 | 1011.1 |
| 20260903194524 | 19 | 195 | 0.0 | 11.3 | 0.00 | 0.00 | 0.00 | 44 | 1011.2 |
| 20260903193028 | 18 | 144 | 1.6 | 8.0 | 0.00 | 0.00 | 0.00 | 45 | 1011.4 |
| 20260903191536 | 18 | 219 | 3.2 | 8.0 | 0.00 | 0.00 | 0.00 | 47 | 1011.4 |
| 20260903190003 | 18 | 123 | 3.2 | 9.7 | 0.00 | 0.00 | 0.00 | 51 | 1011.6 |
| 20260903184502 | 18 | 192 | 3.2 | 9.7 | 0.00 | 0.00 | 0.00 | 50 | 1011.7 |
| 20260903183007 | 18 | 178 | 3.2 | 11.3 | 0.00 | 0.00 | 0.00 | 50 | 1011.8 |
| 20260903181508 | 18 | 151 | 4.8 | 14.5 | 0.00 | 0.00 | 0.00 | 49 | 1011.8 |
| 20260903180002 | 18 | 186 | 6.4 | 17.7 | 0.00 | 0.00 | 0.00 | 50 | 1011.7 |
| 20260903174503 | 17 | 238 | 0.0 | 16.1 | 0.00 | 0.00 | 0.00 | 51 | 1011.6 |
| 20260903173003 | 17 | 253 | 0.0 | 11.3 | 0.00 | 0.00 | 0.00 | 52 | 1011.7 |
| 20260903171503 | 17 | 236 | 0.0 | 12.9 | 0.00 | 0.00 | 0.00 | 53 | 1011.7 |
| 20260903170003 | 16 | 156 | 4.8 | 19.3 | 0.00 | 0.00 | 0.00 | 55 | 1011.7 |
| 20260903164503 | 15 | 160 | 4.8 | 17.7 | 0.00 | 0.00 | 0.00 | 60 | 1011.6 |
| 20260903163004 | 15 | 148 | 6.4 | 16.1 | 0.00 | 0.00 | 0.00 | 61 | 1011.5 |
| 20260903161506 | 15 | 196 | 8.0 | 19.3 | 0.00 | 0.00 | 0.00 | 60 | 1011.7 |
| 20260903160005 | 15 | 190 | 9.7 | 20.9 | 0.00 | 0.00 | 0.00 | 60 | 1011.4 |
| 20260903154503 | 14 | 210 | 6.4 | 16.1 | 0.00 | 0.00 | 0.00 | 63 | 1011.3 |
| 20260903153003 | 14 | 189 | 8.0 | 19.3 | 0.00 | 0.00 | 0.00 | 66 | 1011.3 |
| 20260903151509 | 13 | 146 | 8.0 | 19.3 | 0.00 | 0.00 | 0.00 | 70 | 1011.3 |
| 20260903150014 | 13 | 126 | 8.0 | 19.3 | 0.00 | 0.00 | 0.00 | 72 | 1011.3 |
| 20260903144515 | 12 | 152 | 9.7 | 24.1 | 0.00 | 0.00 | 0.00 | 77 | 1011.4 |
| 20260903143011 | 12 | 169 | 8.0 | 17.7 | 0.00 | 0.00 | 0.00 | 80 | 1011.3 |
| 20260903141506 | 11 | 216 | 6.4 | 17.7 | 0.00 | 0.00 | 0.00 | 84 | 1011.2 |
| 20260903140010 | 11 | 232 | 6.4 | 19.3 | 0.00 | 0.00 | 0.00 | 85 | 1011.2 |
| 20260903134510 | 11 | 172 | 8.0 | 16.1 | 0.00 | 0.00 | 0.00 | 85 | 1011.2 |
| 20260903133015 | 11 | 194 | 6.4 | 17.7 | 0.00 | 0.00 | 0.00 | 85 | 1011.0 |
| 20260903131518 | 11 | 194 | 8.0 | 22.5 | 0.00 | 0.00 | 0.00 | 85 | 1011.0 |
| 20260903130012 | 11 | 209 | 8.0 | 20.9 | 0.00 | 0.00 | 0.00 | 86 | 1010.9 |
| 20260903124506 | 11 | 135 | 6.4 | 17.7 | 0.00 | 0.00 | 0.00 | 87 | 1010.7 |
| 20260903123008 | 11 | 111 | 8.0 | 17.7 | 0.00 | 0.00 | 0.00 | 87 | 1010.8 |
| 20260903121526 | 11 | 152 | 6.4 | 16.1 | 0.00 | 0.00 | 0.00 | 86 | 1010.8 |
| 20260903120038 | 12 | 193 | 6.4 | 17.7 | 0.00 | 0.00 | 0.00 | 86 | 1010.8 |
| 20260903114521 | 12 | 165 | 4.8 | 14.5 | 0.00 | 0.00 | 0.00 | 85 | 1010.4 |
| 20260903113012 | 12 | 162 | 4.8 | 12.9 | 0.00 | 0.00 | 0.00 | 84 | 1010.5 |
| 20260903111517 | 12 | 165 | 4.8 | 14.5 | 0.00 | 0.00 | 0.00 | 84 | 1010.3 |
| 20260903110011 | 13 | 184 | 9.7 | 17.7 | 0.00 | 0.00 | 0.00 | 85 | 1010.0 |
| 20260903104529 | 13 | 157 | 6.4 | 16.1 | 0.00 | 0.00 | 0.00 | 85 | 1010.0 |
| 20260903103031 | 13 | 163 | 4.8 | 14.5 | 0.00 | 0.00 | 0.00 | 86 | 1010.1 |
| 20260903101515 | 13 | 163 | 4.8 | 14.5 | 0.00 | 0.00 | 0.00 | 85 | 1010.1 |
| 20260903100003 | 13 | 192 | 6.4 | 16.1 | 0.00 | 0.00 | 0.00 | 85 | 1010.0 |
| 20260903094503 | 13 | 188 | 4.8 | 17.7 | 0.00 | 0.00 | 0.00 | 84 | 1009.9 |
| 20260903093002 | 13 | 63 | 4.8 | 17.7 | 0.00 | 0.00 | 0.00 | 84 | 1010.0 |
| 20260903091502 | 13 | 175 | 8.0 | 19.3 | 0.00 | 0.00 | 0.00 | 83 | 1009.8 |
| 20260903090003 | 13 | 168 | 6.4 | 17.7 | 0.00 | 0.00 | 0.00 | 82 | 1009.5 |
| 20260903084504 | 13 | 166 | 8.0 | 17.7 | 0.00 | 0.00 | 0.00 | 82 | 1009.3 |
| 20260903083005 | 13 | 177 | 6.4 | 17.7 | 0.00 | 0.00 | 0.00 | 81 | 1009.4 |
| 20260903081503 | 13 | 223 | 8.0 | 19.3 | 0.00 | 0.00 | 0.00 | 83 | 1009.2 |
| 20260903080003 | 13 | 183 | 4.8 | 16.1 | 0.00 | 0.00 | 0.00 | 84 | 1009.0 |
| 20260903074506 | 13 | 170 | 8.0 | 19.3 | 0.00 | 0.00 | 0.00 | 84 | 1009.0 |
| 20260903073004 | 13 | 275 | 8.0 | 16.1 | 0.00 | 0.00 | 0.00 | 85 | 1009.0 |
| 20260903071508 | 13 | 175 | 8.0 | 19.3 | 0.00 | 0.00 | 0.00 | 84 | 1009.1 |
| 20260903070014 | 13 | 161 | 8.0 | 19.3 | 0.00 | 0.00 | 0.00 | 83 | 1008.9 |
| 20260903064503 | 13 | 260 | 9.7 | 22.5 | 0.00 | 0.00 | 0.00 | 83 | 1008.7 |
| 20260903063005 | 13 | 194 | 9.7 | 27.4 | 0.00 | 0.00 | 0.00 | 82 | 1008.5 |
| 20260903061504 | 13 | 219 | 9.7 | 24.1 | 0.00 | 0.00 | 0.00 | 81 | 1008.6 |
| 20260903060013 | 14 | 134 | 12.9 | 25.7 | 0.00 | 0.00 | 0.00 | 78 | 1008.6 |
| 20260903054518 | 14 | 123 | 8.0 | 22.5 | 0.00 | 0.00 | 0.00 | 79 | 1008.7 |
| 20260903053003 | 15 | 163 | 9.7 | 24.1 | 0.00 | 0.00 | 0.00 | 80 | 1008.7 |
| 20260903051506 | 15 | 59 | 9.7 | 24.1 | 0.00 | 0.00 | 0.00 | 78 | 1008.7 |
| 20260903050004 | 15 | 196 | 8.0 | 27.4 | 0.00 | 0.00 | 0.00 | 76 | 1008.8 |
| 20260903044504 | 15 | 181 | 11.3 | 19.3 | 0.00 | 0.00 | 0.00 | 76 | 1008.6 |
| 20260903043022 | 15 | 153 | 8.0 | 17.7 | 0.00 | 0.00 | 0.00 | 78 | 1008.5 |
| 20260903041505 | 15 | 126 | 9.7 | 24.1 | 0.00 | 0.00 | 0.00 | 78 | 1008.5 |
| 20260903040004 | 15 | 206 | 8.0 | 20.9 | 0.00 | 0.00 | 0.00 | 78 | 1008.4 |
| 20260903034510 | 16 | 212 | 6.4 | 14.5 | 0.00 | 0.00 | 0.00 | 76 | 1008.5 |
| 20260903033014 | 16 | 175 | 6.4 | 19.3 | 0.00 | 0.00 | 0.00 | 75 | 1008.4 |
| 20260903031527 | 16 | 230 | 6.4 | 19.3 | 0.00 | 0.00 | 0.00 | 74 | 1008.4 |
| 20260903030009 | 16 | 196 | 8.0 | 16.1 | 0.00 | 0.00 | 0.00 | 73 | 1008.2 |
| 20260903024510 | 16 | 188 | 8.0 | 14.5 | 0.00 | 0.00 | 0.00 | 75 | 1008.0 |
| 20260903023015 | 16 | 130 | 4.8 | 16.1 | 0.00 | 0.00 | 0.00 | 72 | 1007.9 |
| 20260903021516 | 17 | 225 | 3.2 | 12.9 | 0.00 | 0.00 | 0.00 | 67 | 1008.2 |
| 20260903020029 | 17 | 177 | 4.8 | 19.3 | 0.00 | 0.00 | 0.00 | 64 | 1008.2 |
| 20260903014536 | 17 | 157 | 4.8 | 17.7 | 0.00 | 0.00 | 0.00 | 62 | 1008.0 |
| 20260903013013 | 17 | 256 | 3.2 | 19.3 | 0.00 | 0.00 | 0.00 | 61 | 1008.0 |
| 20260903011520 | 17 | 205 | 8.0 | 20.9 | 0.00 | 0.00 | 0.00 | 60 | 1007.8 |